Flag for Germany Weather past 2 weeks in Cologne, North Rhine-Westphalia, Germany

Now
30 °F

Fog.


Feels Like: 24 °F
Forecast: 41 / 51 °F
Wind: 6 mph from Southeast

Location: Koeln / Bonn

Current Time: Feb 28, 2015 at 6:34:22 AM

Latest Report: Feb 28, 2015 at 6:20 AM


Visibility: N/A

Pressure: 30.15 "Hg

Humidity: 93%

Dew point: 28 °F

Location of CologneLocation

Historic Weather in Cologne — Graph

°F

Cologne temperature yesterday

Maximum temperature yesterday: 43 °F (at 12:20 AM)
Minimum temperature yesterday: 30 °F (at 10:20 PM)
Average temperature yesterday: 40 °F

Past Weeks' High & Low Weather Summary

 TemperatureHumidityPressure
High52 °F (Feb 15, 2:20 PM)100% (Feb 17, 10:50 AM)30.77 "Hg (Feb 17, 10:50 AM)
Low28 °F (Feb 15, 6:50 AM)38% (Feb 15, 2:20 PM)29.39 "Hg (Feb 21, 4:20 AM)
Average39 °F80%29.98 "Hg
* Reported Feb 13 5:20 AM — Feb 28 5:20 AM, Cologne, Weather by CustomWeather, © 2015

Note: Actual official high and low records may vary slightly from our data, if they occured in-between our weather recording intervals... More about our weather records

Advertising

Cologne weather history for previous 24 hours

 ConditionsComfort  
Time TempWeatherWind HumidityBarometerVisibility
5:20 AM
Sat, Feb 28
28 °FFog.6 mph93%30.15 "HgN/A
4:50 AM30 °FFog.5 mph93%30.15 "HgN/A
4:20 AM28 °FClear.3 mph93%30.15 "Hg10 mi
3:50 AM32 °FClear.6 mph93%30.15 "Hg10 mi
3:20 AM32 °FClear.5 mph93%30.15 "Hg10 mi
2:50 AM32 °FPassing clouds.5 mph93%30.15 "HgN/A
2:20 AM32 °FPassing clouds.1 mph93%30.18 "HgN/A
1:50 AM32 °FPassing clouds.2 mph93%30.15 "HgN/A
1:20 AM32 °FPassing clouds.1 mph93%30.15 "HgN/A
12:50 AM34 °FClear.3 mph87%30.15 "Hg10 mi
12:20 AM34 °FPassing clouds.3 mph87%30.15 "HgN/A
11:50 PM
Fri, Feb 27
34 °FPassing clouds.1 mph87%30.18 "HgN/A
11:20 PM34 °FPassing clouds.1 mph87%30.15 "HgN/A
10:50 PM32 °FPassing clouds.2 mph93%30.15 "HgN/A
10:20 PM30 °FPassing clouds.2 mph86%30.15 "HgN/A
9:50 PM32 °FPassing clouds.2 mph87%30.15 "HgN/A
9:20 PM36 °FPassing clouds.2 mph81%30.12 "HgN/A
8:50 PM36 °FClear.1 mph81%30.12 "Hg10 mi
8:20 PM36 °FClear.2 mph75%30.12 "Hg10 mi
7:50 PM37 °FClear.5 mph75%30.09 "Hg10 mi
7:20 PM37 °FClear.6 mph75%30.09 "Hg10 mi
6:50 PM39 °FPassing clouds.5 mph70%30.09 "HgN/A
6:20 PM41 °FPartly cloudy.6 mph66%30.07 "HgN/A
5:50 PM43 °FBroken clouds.8 mph66%30.07 "HgN/A
5:20 PM43 °FBroken clouds.12 mph61%30.04 "HgN/A
4:50 PM43 °FBroken clouds.13 mph66%30.04 "HgN/A
4:20 PM43 °FBroken clouds.13 mph66%30.04 "HgN/A
3:50 PM43 °FBroken clouds.14 mph71%30.01 "HgN/A
3:20 PM41 °FDrizzle. Broken clouds.16 mph76%30.01 "HgN/A
2:50 PM43 °FBroken clouds.16 mph71%30.01 "HgN/A
2:20 PM41 °FBroken clouds.10 mph81%29.98 "HgN/A
1:50 PM41 °FDrizzle. Broken clouds.17 mph81%29.98 "HgN/A
1:20 PM43 °FBroken clouds.14 mph76%29.98 "HgN/A
12:50 PM43 °FBroken clouds.15 mph81%29.98 "HgN/A
12:20 PM43 °FBroken clouds.14 mph81%29.95 "HgN/A
11:50 AM41 °FPartly sunny.12 mph87%29.95 "HgN/A
11:20 AM41 °FBroken clouds.13 mph93%29.95 "HgN/A
10:50 AM41 °FPartly sunny.13 mph93%29.92 "HgN/A
10:20 AM41 °FDrizzle. Partly sunny.10 mph93%29.92 "HgN/A
9:50 AM39 °FDrizzle. Mostly cloudy.13 mph93%29.92 "HgN/A
9:20 AM39 °FLight rain. Mostly cloudy.13 mph93%29.89 "HgN/A
8:50 AM39 °FLight rain. Mostly cloudy.10 mph93%29.89 "HgN/A
8:20 AM39 °FLight rain. Mostly cloudy.17 mph93%29.86 "HgN/A
7:50 AM39 °FLight rain. Partly sunny.16 mph93%29.86 "HgN/A
7:20 AM39 °FLight rain. Mostly cloudy.15 mph93%29.83 "HgN/A
6:50 AM41 °FLight rain. Mostly cloudy.18 mph93%29.80 "HgN/A
6:20 AM41 °FLight rain. Passing clouds.5 mph100%29.77 "HgN/A
Weather by CustomWeather, © 2015

See weather overviewHow to use our weather pages